Regional Weather Roundup
Issued by NWS

Home | Current Version | Previous Version | Graphics & Text | Print | Product List | Glossary On
Versions: 1 2 3 4 5 6 7 8 9 10 11 12 13 14 15 16 17 18 19 20 21 22 23 24 25 26 27 28 29 30 31 32 33 34 35 36 37 38 39 40 41 42 43 44 45 46 47 48 49 50
000
ASUS43 KBIS 141110
RWRND

NORTH DAKOTA REGIONAL WEATHER ROUNDUP
NATIONAL WEATHER SERVICE BISMARCK ND
500 AM CST THU DEC 14 2017

NOTE: "FAIR" INDICATES FEW OR NO CLOUDS BELOW 12,000 FEET WITH NO
SIGNIFICANT WEATHER AND/OR OBSTRUCTIONS TO VISIBILITY.


NDZ001>003-009>011-017-141200-
NORTHWEST NORTH DAKOTA

CITY           SKY/WX    TMP DP  RH WIND       PRES   REMARKS
WILLISTON      CLOUDY    34  27  75 N16G25    30.09R
MINOT          CLOUDY    33  28  81 NW13      29.98R
MINOT AFB      CLOUDY    32  28  86 NW10      29.98R
$$

NDZ018>021-031>035-040>046-141200-
SOUTHWEST NORTH DAKOTA

CITY           SKY/WX    TMP DP  RH WIND       PRES   REMARKS
BISMARCK       CLOUDY    31  30  96 NW6       29.98S
DICKINSON      CLOUDY    31  28  89 NW23      30.01R WCI  18
GARRISON         N/A     32  28  85 NW15      29.98R
HETTINGER ARPT FLURRIES  32  28  85 NW23G33   30.04R WCI  19
$$

NDZ004>008-012>016-024-026-027-054-141200-
NORTHEAST NORTH DAKOTA

CITY           SKY/WX    TMP DP  RH WIND       PRES   REMARKS
GRAND FORKS    CLOUDY    18  15  88 SW3       29.98F
GRND FRKS AFB  CLOUDY    20  17  86 NW3       29.98S
DEVILS LAKE    FLURRIES  22  20  92 CALM      29.96S
$$

NDZ022-023-025-028>030-036>039-047>053-141200-
SOUTHEAST NORTH DAKOTA

CITY           SKY/WX    TMP DP  RH WIND       PRES   REMARKS
FARGO          CLOUDY    19  15  84 CALM      30.00S
JAMESTOWN      CLOUDY    26  25  96 S3        29.94S
$$





USA.gov is the U.S. government's official web portal to all federal, state and local government web resources and services.